User: anonymous   Login
Location: Penton Mewsey
(51.2167°N, 1.5167°W)
Time: 10:19:47
(UTC+00:00)
Language:

STARLINK-1246 - Orbit

View from above orbital plane
View from above orbital plane
View from above satellite
View from above satellite

Ground track
Ground track

The orbit data is extracted from the following two-line orbital elements,

1 45235U 20012BK  20184.16667824 -.00036465  00000-0 -24943-2 0  9999
2 45235  52.9985   8.4916 0001317  92.8797 322.6262 15.05610514 20969
Epoch (UTC): 02 July 2020 04:00:01
Eccentricity: 0.0001317
inclination: 52.9985°
perigee height: 549 km
apogee height: 550 km
right ascension of ascending node: 8.4916°
argument of perigee: 92.8797°
revolutions per day: 15.05610514
mean anomaly at epoch: 322.6262°
orbit number at epoch: 2096

The dashed part of the orbit path shows where the satellite is in the earth's shadow,  

DLR